Pegasus-1 (41846 NORAD) Tracking and Keplerian Element Data

This shows tracking and keplerian element data for the satellite.

Feedback or suggestion? Click here.




ElementValue
Catalog41846
NamePegasus-1
Epoch Orbit10464
Epoch Day312.56079863
Epoch Year2018
RAAN343.8983
Inclination98.7412
Eccentricity0.0368174
Argument of Perigee178.2168
Mean Anonmoly182.0432
Mean Motion14.37433618
Decay Rate2.56E-06
L11 41846U 16066F 18312.56079863 .00000256 00000-0 49219-4 0 9993
L22 41846 098.7412 343.8983 0368174 178.2168 182.0432 14.37433618104641

Live tracking and technical data element details for Pegasus-1 (NORAD 41846). Pegasus-1 can be tracked NOW for your location showing map with azimuth and elevation plus other details from your city location.

Track the satellite on the map from your city or location and see movement details for azimuth, elevation, latitude, longitude, range, height, and movement on the map or in text.







IsCatalogInMostPopularTable: catalog: 41846, numindb: 109
Update: records affected: 1



GetName: 41846 Pegasus-1

Hit Count: updated at: Fri, 16 Nov 2018 03:06:00 GMT